Location: Fontaine
(50.2361°N, 1.9293°E)
Time: 09:46:43
(UTC+00:00)

Daily predictions for brighter satellites

Satellite Brightness Start Highest point End
(mag) Time Altitude Azimuth Time Altitude Azimuth Time Altitude Azimuth
Cosmos 1459 Rocket 4.2 16:29:44 10° S 16:36:03 85° W 16:42:28 10° N
COSMOS 2406 4.4 16:36:27 10° NNW 16:40:47 22° NE 16:45:06 10° E
Cosmos 2084 Rocket 3.4 16:37:23 10° SW 16:41:33 73° SE 16:45:45 10° NE
Cosmos 2100 Rocket 4.4 16:37:36 10° SSW 16:43:44 70° WNW 16:49:54 10° N
ATLAS CENTAUR R/B 2.3 16:40:54 10° WSW 16:44:03 32° NW 16:47:13 10° NNE
Cosmos 1441 Rocket 3.2 16:42:16 10° NNW 16:45:37 72° W 16:48:57 10° S
Cosmos 2221 Rocket 4.3 16:41:48 10° NNW 16:46:14 60° W 16:50:36 10° S
Cosmos 1833 Rocket 2.9 16:40:43 10° NNW 16:46:24 79° WSW 16:52:02 10° SSE
SAR-Lupe-4 3.9 16:43:20 10° SE 16:46:43 41° ENE 16:50:06 10° N
ARIANE 5 R/B 2.7 16:42:38 10° SE 16:47:24 49° ENE 16:52:13 10° N
Timation 1 Rocket 4.4 16:48:52 10° NNW 16:54:45 56° NE 17:00:36 10° SE
USA 215 3.4 16:48:26 10° SE 16:54:59 82° SSW 17:01:35 10° WNW
IRS-P3 4.4 16:53:09 10° SE 16:58:12 46° ENE 17:03:17 10° N
ATLAS 5 CENTAUR R/B 2.5 16:55:54 10° NW 17:00:09 58° SW 17:05:25 10° SSE
MOS 1 Rocket 3.8 16:56:27 10° SE 17:00:19 33° ENE 17:04:23 10° N
Cosmos 1484 Rocket 4.0 17:00:57 10° S 17:04:18 42° W 17:07:42 10° NNW
Iridium 4 Rocket 4.2 17:01:35 10° SSW 17:06:30 54° W 17:11:02 10° N
Resurs 01 Rocket 3.5 17:08:57 11° NE 17:08:57 11° NE 17:09:58 10° NE
Cosmos 2233 Rocket 4.0 17:02:32 10° S 17:08:50 82° E 17:15:12 10° N
RESURS DK-1 2.2 17:04:58 10° NNW 17:08:57 62° NE 17:12:55 10° SE
Cosmos 1602 4.3 17:06:45 10° NNE 17:09:16 23° ENE 17:11:46 10° SE
Cosmos 407 Rocket 3.8 17:04:57 10° S 17:09:50 44° ESE 17:14:42 10° NE
Cosmos 1725 Rocket 4.3 17:03:36 10° SSW 17:09:52 72° WNW 17:16:13 10° N
Cosmos 2061 Rocket 4.0 17:05:04 10° S 17:11:21 78° E 17:17:36 10° NNE
ISS -2.8 17:12:05 10° SW 17:15:10 35° SSE 17:17:12 18° E
Geosat FO 4.5 17:12:42 10° SE 17:15:24 39° NE 17:18:08 10° NNW
Cosmos 1782 Rocket 3.7 17:11:09 10° SSW 17:15:36 82° WNW 17:20:03 10° N
CZ-2D R/B 2.6 17:13:23 10° SSE 17:16:32 74° ENE 17:19:42 10° N
Cosmos 1869 3.2 17:13:59 10° SSE 17:17:21 44° E 17:20:43 10° NNE
ERS-1 4.4 17:13:26 10° SSE 17:18:34 74° ENE 17:23:40 10° NNW
USA 281 4.3 17:15:06 14° E 17:19:02 23° NE 17:24:00 10° N
SPOT 1/Viking Rocket 3.9 17:14:33 10° SE 17:19:22 41° ENE 17:24:14 10° N
Cosmos 1300 Rocket 3.9 17:15:25 10° SSW 17:19:47 68° WNW 17:24:10 10° N
COSMO-SKYMED 1 3.8 17:21:26 18° ENE 17:22:23 20° E 17:25:25 10° SE
SJ-12 3.6 17:19:34 10° SSE 17:23:21 86° ENE 17:27:10 10° NNW
AQUARIUS 4.0 17:22:46 10° SSE 17:27:09 76° ENE 17:31:35 10° N
SL-12 R/B(2) 4.4 17:19:52 10° SSW 17:27:40 63° ESE 17:36:59 11° NE
Cosmos 540 Rocket 3.4 17:23:49 10° NNW 17:29:00 83° ENE 17:34:07 10° SSE
BREEZE-M DEB (TANK) 2.7 17:27:04 10° SW 17:29:28 46° SSE 17:32:21 20° E
Cosmos 1400 Rocket 3.9 17:28:25 10° SE 17:31:12 22° E 17:31:12 22° E
Cosmos 1975 Rocket 3.5 17:28:03 10° NNW 17:32:21 64° W 17:36:40 10° S
Spot 4 Rocket 4.2 17:28:20 10° SE 17:33:09 45° ENE 17:38:01 10° N
Cosmos 1763 Rocket 3.6 17:29:14 10° NNW 17:34:28 78° WSW 17:39:36 10° SSE
Cosmos 1812 2.2 17:33:56 10° S 17:36:42 44° E 17:37:34 33° NE
Cosmos 1140 Rocket 4.0 17:36:36 10° SW 17:41:43 60° WNW 17:46:50 10° NNE
Cosmos 2151 Rocket 4.0 17:37:50 10° SSE 17:41:59 38° E 17:45:29 14° NNE
Cosmos 2058 2.7 17:38:28 10° N 17:42:25 61° ENE 17:46:21 10° SSE
SMAP 4.2 17:38:49 10° S 17:43:18 48° W 17:47:50 10° NNW
Cosmos 44 Rocket 3.4 17:39:51 10° SSW 17:44:29 53° ESE 17:47:06 25° ENE
SKYMED 2 3.7 17:45:23 12° NNE 17:49:14 50° E 17:53:27 10° S
Cosmos 1943 Rocket 2.1 17:43:57 10° SSW 17:49:32 75° ESE 17:54:09 15° NNE
Helios 1A Rocket 3.7 17:51:57 25° SE 17:51:57 25° SE 17:53:54 10° SSE
Okean 1 Rocket 3.7 17:48:01 10° SSE 17:51:43 31° E 17:51:43 31° E
CZ-2D R/B 3.3 17:48:04 10° SSE 17:52:11 70° ENE 17:56:23 10° N
SJ-7 4.2 17:48:36 10° SSE 17:52:11 53° ENE 17:55:48 10° N
IRAS Rocket 4.2 17:47:10 10° SSE 17:52:40 66° ENE 17:58:09 10° NNW
Sich 1 Rocket 4.2 17:48:53 10° SSE 17:52:57 34° E 17:53:29 33° ENE
Cosmos 2082 Rocket 2.1 17:47:30 10° NNW 17:53:09 83° ENE 17:58:47 10° SSE
PSLV R/B 3.5 17:49:51 10° SE 17:53:47 51° ENE 17:57:42 10° N
Cosmos 2026 Rocket 4.3 17:51:48 10° N 17:57:29 40° ENE 18:03:12 10° SE
Cosmos 1072 Rocket 4.4 17:51:53 10° S 17:57:56 65° E 18:04:00 10° NNE
Cosmos 2278 Rocket 2.1 17:52:40 10° SSW 17:58:19 82° ESE 18:02:47 17° NNE
NOAA 6 4.1 17:55:36 10° SE 18:00:33 51° ENE 18:05:32 10° N
BREEZE-M DEB (TANK) 3.4 17:58:25 10° SW 18:01:13 51° SSE 18:03:16 32° E
Aureole 3 Rocket 2.2 17:58:22 10° SSW 18:01:24 79° WNW 18:03:12 24° N
BREEZE-M DEB (TANK) 2.9 17:59:31 10° WSW 18:02:06 76° SSE 18:04:09 34° ENE
SL-16 R/B 4.1 17:59:46 10° N 18:05:18 34° WNW 18:10:47 10° WSW
Geosat 4.1 18:04:11 30° ESE 18:06:27 54° NE 18:11:20 10° NNW
Cosmos 2251 Rocket 3.4 18:03:53 10° SSW 18:09:09 75° ESE 18:12:38 22° NNE
YAOGAN 1 2.4 18:07:22 10° SSE 18:11:37 81° ENE 18:15:55 10° NNW
Cosmos 371 Rocket 3.5 18:08:13 10° S 18:12:47 44° ESE 18:12:52 44° ESE
Cosmos 304 Rocket 3.9 18:09:20 10° S 18:13:51 47° ESE 18:13:57 47° ESE
Cosmos 841 Rocket 3.4 18:08:57 10° NNW 18:14:13 68° ENE 18:17:15 25° SE
SJ 16-02 1.2 18:11:09 10° S 18:15:23 60° ESE 18:15:42 58° E
SL-19 R/B 4.0 18:10:40 10° SSE 18:15:53 87° ENE 18:21:09 10° NNW
Nadezhda 4 Rocket 4.0 18:13:21 10° N 18:19:42 89° WSW 18:25:55 10° S
CZ-4C R/B 3.8 18:15:31 10° WNW 18:19:50 25° N 18:22:36 19° NNE
ATLAS CENTAUR R/B 3.6 18:19:27 10° NNW 18:20:05 10° NNW 18:20:42 10° N
Cosmos 1862 3.4 18:18:29 10° NNW 18:22:06 65° W 18:25:41 10° S
Resurs 1-3 3.5 18:19:19 10° SSE 18:23:37 83° WSW 18:27:57 10° NNW
ATLAS 2AS CENTAUR R/B 3.0 18:17:25 10° NW 18:23:59 47° NNE 18:25:35 40° ENE
COSMOS 2406 3.1 18:20:13 10° NNW 18:25:56 83° ENE 18:29:07 28° SSE
Cosmos 1627 Rocket 4.4 18:22:03 10° N 18:28:08 62° ENE 18:34:14 10° SSE
Cosmos 1656 Rocket 4.2 18:24:22 10° S 18:28:32 38° SE 18:28:32 38° SE
Cosmos 2195 Rocket 4.4 18:27:13 10° N 18:33:35 81° E 18:39:55 10° SSE
Cosmos 1536 Rocket 4.2 18:29:50 10° NNW 18:34:11 55° W 18:38:28 10° S
Okean 2 Rocket 3.0 18:32:22 10° SSW 18:36:46 80° WNW 18:37:52 50° N
Cosmos 1190 Rocket 4.1 18:34:47 10° SSW 18:40:04 75° WNW 18:42:26 34° NNE
Cosmos 2344 3.8 18:34:21 10° NW 18:42:10 81° NE 18:47:32 31° SE
Cosmos 676 Rocket 3.8 18:37:40 10° SSW 18:42:57 76° ESE 18:43:16 73° ENE
Resurs 01 Rocket 3.0 18:46:22 28° N 18:46:22 28° N 18:48:30 10° N
Meteor 2-3 Rocket 3.6 18:39:45 10° NNW 18:45:30 89° WSW 18:49:59 17° S
Cosmos 2297 Rocket 4.4 18:46:54 10° N 18:48:17 12° NNE 18:48:17 12° NNE
ISS -1.6 18:48:25 10° W 18:50:07 27° W 18:50:07 27° W
Cosmos 1954 Rocket 4.1 18:47:47 10° SSW 18:53:02 72° WNW 18:54:18 51° N
COSMO-SKYMED 1 3.3 18:57:48 47° WNW 18:57:58 47° WNW 19:01:55 10° SW
USA 281 3.0 19:02:00 69° ESE 19:02:40 75° ENE 19:09:15 10° NNW
Cosmos 1943 Rocket 4.0 19:29:11 10° W 19:33:51 26° NW 19:35:40 22° NNW
Cosmos 2278 Rocket 4.0 19:38:28 10° W 19:43:04 25° NW 19:44:37 22° NNW
SJ 16-02 4.0 19:50:42 10° W 19:52:17 16° W 19:52:17 16° W
CZ-4C R/B 4.3 20:04:53 10° NW 20:07:32 22° NNW 20:07:32 22° NNW
ATLAS 2AS CENTAUR R/B 3.7 20:08:28 10° NW 20:13:01 41° WNW 20:13:01 41° WNW
